Location: Three Oaks Observatory
(31.1535°N, 83.5955°W)
Time: 10:43:44
(UTC-04:00)

Hubble Space Telescope - Visible Passes

Search period start: 20 July 2018 00:00
Search period end: 30 July 2018 00:00
Orbit: 537 x 541 km, 28.5° (Epoch: 19 July)

Date Brightness Start Highest point End Pass type
(mag) Time Alt. Az. Time Alt. Az. Time Alt. Az.
20 Jul 0.8 05:12:20 40° WSW 05:13:32 58° S 05:17:35 10° ESE visible
21 Jul 0.8 05:02:44 52° SSW 05:03:10 55° S 05:07:12 10° ESE visible
22 Jul 1.1 04:53:17 47° SSE 04:53:17 47° SSE 04:56:48 10° ESE visible
23 Jul 2.0 04:44:00 30° SE 04:44:00 30° SE 04:46:22 10° ESE visible
24 Jul 3.0 04:34:55 16° SE 04:34:55 16° SE 04:35:54 10° ESE visible
24 Jul 2.5 06:10:22 10° WSW 06:12:48 15° SSW 06:15:14 10° SSE visible
25 Jul 2.7 06:01:25 11° SW 06:02:21 12° SSW 06:03:57 10° S visible
27 Jul 2.7 21:04:49 10° S 21:06:45 13° SSE 21:08:40 10° SE visible
27 Jul 3.2 22:43:40 10° SW 22:44:15 13° SW 22:44:15 13° SW visible
28 Jul 2.5 20:53:39 10° SSW 20:56:17 16° SSE 20:58:56 10° ESE visible
28 Jul 2.4 22:33:10 10° WSW 22:35:06 24° SW 22:35:06 24° SW visible
29 Jul 1.5 22:22:42 10° WSW 22:25:45 39° SSW 22:25:45 39° SSW visible
